User: anonymous   Login
Location: Big Prairie
(40.6673°N, 82.0952°W)
Time: 17:32:30
(UTC+00:00)
Language:

Cosmos 2026 Rocket - Orbit

View from above orbital plane
View from above orbital plane
View from above satellite
View from above satellite

Ground track
Ground track

The orbit data is extracted from the following two-line orbital elements,

1 20046U 89042B   22144.75190210  .00000072  00000-0  55196-4 0  9992
2 20046  82.9398  39.6694 0043178  54.5986 305.9193 13.78274643657339
Epoch (UTC): 24 May 2022 18:02:44
Eccentricity: 0.0043178
inclination: 82.9398°
perigee height: 938 km
apogee height: 1002 km
right ascension of ascending node: 39.6694°
argument of perigee: 54.5986°
revolutions per day: 13.78274643
mean anomaly at epoch: 305.9193°
orbit number at epoch: 65733

The dashed part of the orbit path shows where the satellite is in the earth's shadow,  

DLR